AirNav   ATP
 
 1130 users online  

67R Rio Grande City Municipal Airport
Rio Grande City, Texas, USA

GOING TO RIO GRANDE CITY?


FAA INFORMATION EFFECTIVE 11 OCTOBER 2018

Location

FAA Identifier: 67R
Lat/Long: 26-25-27.4200N / 098-50-45.8900W
26-25.457000N / 098-50.764833W
26.4242833 / -98.8460806
(estimated)
Elevation: 290.3 ft. / 88.5 m (surveyed)
Variation: 07E (1990)
From city: 3 miles NW of RIO GRANDE CITY, TX
Time zone: UTC -5 (UTC -6 during Standard Time)
Zip code: 78582

Airport Operations

Airport use: Open to the public
Activation date: 03/1971
Control tower: no
ARTCC: HOUSTON CENTER
FSS: SAN ANGELO FLIGHT SERVICE STATION
NOTAMs facility: SJT (NOTAM-D service available)
Attendance: UNATNDD
Wind indicator: lighted
Segmented circle: yes
Lights: MIRL RY 16/34 PRESET LOW INTST; TO INCR INTST ACTVT - CTAF.
Beacon: white-green (lighted land airport)
Operates sunset to sunrise.

Airport Communications

CTAF: 122.9

Nearby radio navigation aids

VOR radial/distance  VOR name  Freq  Var
MFEr286/35.9MC ALLEN VOR/DME117.2009E

Airport Services

Parking: tiedowns

Runway Information

Runway 16/34

Dimensions: 4000 x 75 ft. / 1219 x 23 m
Surface: asphalt, in good condition
Weight bearing capacity: 
Single wheel: 12.5
Runway edge lights: medium intensity
RUNWAY 16  RUNWAY 34
Latitude: 26-25.707367N26-25.081167N
Longitude: 098-50.858500W098-50.626000W
Elevation: 290.3 ft.273.1 ft.
Gradient: 0.5%0.5%
Traffic pattern: leftleft
Runway heading: 155 magnetic, 162 true335 magnetic, 342 true
Markings: nonprecision, in good conditionnonprecision, in good condition
Touchdown point: yes, no lightsyes, no lights
Obstructions: none10 ft. brush, 200 ft. from runway, 57 ft. left of centerline
SCATTERED +10 FT BRUSH 50-200 FT FM THLD ACROSS APPROACH.

Airport Ownership and Management from official FAA records

Ownership: Publicly-owned
Owner: CITY OF RIO GRANDE CITY
5332 E. US-83
RIO GRANDE CITY, TX 78582
Phone 956-487-0672
Manager: RICARDO REYES
5332 E. US-83
RIO GRANDE CITY, TX 78582
Phone 956-487-5312
FIRE CHIEF

Airport Operational Statistics

Aircraft based on the field: 1
Helicopters: 1
    
Aircraft operations: avg 35/week *
99% local general aviation
1% transient general aviation
* for 12-month period ending 02 February 2017

Additional Remarks

ARPT GATE CLSD AND LOCKED CALL 956-487-5312 FOR ACCESS. NO PUBLIC PHONE WITHIN ARPT PROPERTY.

Instrument Procedures

There are no published instrument procedures at 67R.

Some nearby airports with instrument procedures:

KMFE - Mc Allen Miller International Airport (36 nm SE)
KEBG - South Texas International Airport at Edinburg (39 nm E)
KTXW - Mid Valley Airport (49 nm E)
KHBV - Jim Hogg County Airport (56 nm N)
KBKS - Brooks County Airport (61 nm NE)
 
Loc | Ops | Rwys | IFR | FBO | Links
Com | Nav | Svcs | Stats | Notes


 
Area around 67R (Rio Grande City Municipal Airport)
 
Road maps at: MapQuest Bing Google
 
Aerial photo
WARNING: Photo may not be current or correct
Aerial photo of 67R (Rio Grande City Municipal Airport)
Photo taken 22-Feb-2008
from about 2000ft looking almost due south

Do you have a better or more recent aerial photo of Rio Grande City Municipal Airport that you would like to share? If so, please send us your photo.

 
Sectional chart

 
Airport distance calculator
Flying to Rio Grande City Municipal Airport? Find the distance to fly.

From to 67R

Sunrise and sunset
Times for 15-Oct-2018
 Local
(UTC-5)
 Zulu
(UTC)
Morning civil twilight07:1212:12
Sunrise07:3612:36
Sunset19:0700:07
Evening civil twilight19:3000:30

Current date and time
Zulu (UTC)  15-Oct-2018 22:31:23
Local (UTC-5)  15-Oct-2018 17:31:23
 
METAR
KMFE 
35nm SE 
152153Z 33015G22KT 10SM OVC012 16/13 A3003 RMK AO2 PK WND 32029/2104 SLP166 T01560133
KEBG 
39nm E 
152215Z AUTO 35012KT 10SM BKN015 OVC020 14/11 A3005 RMK AO2 T01360114
KAPY 
39nm NW 
152215Z AUTO 32011G19KT 3SM BR BKN007 OVC012 10/09 A3010 RMK AO2 T00970092
MMRX 
42nm SE 
152144Z 33012G25KT 7SM OVC013 14/11 A3001 RMK 8/4// BR LWR STFRA OCNL DROPS TOP060
KTXW 
49nm E 
152215Z AUTO 36016G26KT 10SM OVC012 13/11 A3000 RMK AO2 T01300105
TAF
KMFE 
35nm SE 
151734Z 1518/1618 33018G25KT P6SM RA VCTS OVC025CB FM152000 35018G25KT 5SM -SHRA OVC007 FM160700 33015G20KT 5SM -RADZ BR OVC009 FM161200 33015G20KT 5SM -RADZ BR OVC012
MMRX 
42nm SE 
151730Z 1518/1618 14010KT P6SM BKN025 FM151900 34012G22KT 4SM TSRA BKN020CB TEMPO 1519/1522 2SM TSRA OVC010CB FM160200 34015KT 5SM -RA OVC015 FM160600 34012KT 4SM DZ BR OVC010 TEMPO 1612/1616 2SM DZ OVC005
NOTAMs
Click for the latest NOTAMs
NOTAMs are issued by the DoD/FAA and will open in a separate window not controlled by AirNav.

 

 
 

Would you like to see your business listed on this page?

 If your business provides an interesting product or service to pilots, flight crews, aircraft, or users of the Rio Grande City Municipal Airport, you should consider listing it here.  To start the listing process, click on the button below
 
Add a business
 

Other Pages about Rio Grande City Municipal Airport

Update a link
 
Copyright © AirNav, LLC. All rights reserved. Privacy Policy  Contact